Location: Baptist Memorial Hospital
(34.4976°N, 89.0284°W)
Time: 09:00:59
(UTC+00:00)

NOSS 3-3 (C) - Pass Details

Date: 29 October 2020
Orbit: 827 x 1385 km, 63.5° (Epoch: 29 November)

Event Time Altitude Azimuth Distance (km) Brightness Sun altitude
Rises 23:21:12 0° 197° (SSW) 3,357 7.3 -4.1°
Reaches altitude 10° 23:23:36 10° 192° (SSW) 2,447 6.5 -4.5°
Maximum altitude 23:29:04 56° 115° (ESE) 1,045 4.0 -5.6°
Drops below altitude 10° 23:35:05 10° 39° (NE) 2,693 5.9 -6.8°
Sets 23:37:50 0° 36° (NE) 3,723 6.6 -7.4°
